Regional Weather Roundup
Issued by NWS Upton, NY

Current Version | Previous Version | Graphics & Text | Print | Product List | Glossary Off
Versions: 1 2 3 4 5 6 7 8 9 10 11 12 13 14 15 16 17 18 19 20 21 22 23 24 25 26 27 28 29

000
ASUS41 KOKX 240605
RWROKX

REGIONAL WEATHER ROUNDUP
NATIONAL WEATHER SERVICE NEW YORK NY
200 AM EDT THU APR 24 2014

NOTE: "FAIR" INDICATES FEW OR NO CLOUDS BELOW 12,000 FEET WITH NO
SIGNIFICANT WEATHER AND/OR OBSTRUCTIONS TO VISIBILITY.

NYZ071-072-176-178-NJZ106-104-240700-
NEW YORK CITY METRO AREA


CITY           SKY/WX    TMP DP  RH WIND       PRES   REMARKS
CENTRAL PARK   FAIR      44  29  55 W9G22     29.87R
LAGUARDIA APRT FAIR      44  30  57 NW18G25   29.84S
KENNEDY INTL   FAIR      45  29  53 NW20G29   29.85R
NEWARK/LIBERTY FAIR      44  29  55 NW13      29.86S
TETERBORO      FAIR      45  29  53 NW15G24   29.84S
$$

NYZ177-179-078>081-240700-
LONG ISLAND NEW YORK

CITY           SKY/WX    TMP DP  RH WIND       PRES   REMARKS
FARMINGDALE    FAIR      43  29  57 NW10G20   29.81S
ISLIP          FAIR      46  25  43 NW17G26   29.77S
SHIRLEY        FAIR      46  25  43 NW17G31   29.78S
WESTHAMPTON    FAIR      46  26  45 NW21G26   29.76S
MONTAUK POINT    N/A     47  33  58 NW15G23   29.71S
$$

NYZ052-065-067-240700-
HUDSON VALLEY

CITY           SKY/WX    TMP DP  RH WIND       PRES   REMARKS
WHITE PLAINS   FAIR      42  28  57 W12G21    29.79S
NEWBURGH       CLEAR     41  30  65 W14       29.83S
MONTGOMERY     FAIR      37  28  70 SW7       29.83S WCI  32
POUGHKEEPSIE   FAIR      44  26  49 NW10      29.81R
ALBANY         FAIR      39  28  64 NW9       29.81F WCI  33
$$

NJZ001-105-106-008-010-013-015-019>022-104-240700-
NEW JERSEY

CITY           SKY/WX    TMP DP  RH WIND       PRES   REMARKS
NEWARK/LIBERTY FAIR      44  29  55 NW13      29.86S
TETERBORO      FAIR      45  29  53 NW15G24   29.84S
CALDWELL       FAIR      43  27  53 NW12G24   29.87S
MORRISTOWN     FAIR      45  28  53 NW6       29.88R
SOMERVILLE     FAIR      43  26  51 NW6       29.87S
LINDEN         FAIR      45  30  56 NW12G18   29.89S
SUSSEX         FAIR      39  27  62 CALM      29.87S
ANDOVER          N/A     39  27  62 N5        29.88S
TRENTON        FAIR      43  24  47 NW9G18    29.89S
MILLVILLE      FAIR      43  29  57 NW9       29.93S
ATLANTIC CITY  FAIR      43  25  49 NW12      29.90S
WRIGHTSTOWN    FAIR      43  25  49 NW10      29.88S
TOMS RIVER     FAIR      43  25  49 NW5       29.88F
BELMAR         FAIR      43  25  49 NW9       29.87S
$$

PAZ047>061-062-071-240700-
EASTERN PENNSYLVANIA

CITY           SKY/WX    TMP DP  RH WIND       PRES   REMARKS
PHILADELPHIA   FAIR      46  26  45 W9        29.94S
ALLENTOWN      FAIR      42  25  50 NW8       29.92S
SCRANTON       FAIR      39  24  55 NW17G23   29.92S WCI  30
$$

CTZ002-004>006-009-010-012-RIZ004-006-007-MAZ004-011-015-240700-
SOUTHERN NEW ENGLAND
 IN CT

CITY           SKY/WX    TMP DP  RH WIND       PRES   REMARKS
BRADLEY INTL   FAIR      43  26  51 NW14      29.72S
HARTFORD       FAIR      44  26  49 NW14G22   29.73F
DANBURY        FAIR      42  24  49 NW5       29.80R
WTRBRY/OXFORD  FAIR      41  25  52 NW10G16   29.78R
BRIDGEPORT     FAIR      47  26  44 NW22G33   29.77R
MERIDEN        FAIR      44  25  47 NW9G20    29.76R
NEW HAVEN      FAIR      47  26  44 NW14G23   29.76R
CHESTER        FAIR      43  27  52 NW14G25   29.72R
GROTON         CLOUDY    46  30  53 NW10G21   29.69S
WILLIMANTIC    FAIR      45  27  49 NW12G22   29.70S

 IN RI

CITY           SKY/WX    TMP DP  RH WIND       PRES   REMARKS
PROVIDENCE     FAIR      46  28  49 NW15G21   29.65S
BLOCK ISLAND   FAIR      45  32  61 NW15G21   29.67S
WESTERLY       CLOUDY    47  30  51 NW8G21    29.68F

 IN MA

CITY           SKY/WX    TMP DP  RH WIND       PRES   REMARKS
BOSTON         MOCLDY    47  28  47 NW26G41   29.61F
WORCESTER      FAIR      40  25  55 NW22G37   29.64F WCI  30
WESTFIELD      FAIR      45  22  40 N18G24    29.72S
PROVINCETOWN   CLOUDY    45  36  70 MISG      29.56F
NANTUCKET      MOCLDY    47  32  56 NW22G35   29.56S
$$

ANZ330-335-338-340-345-350-353-355-240700-
COASTAL MARINE OBSERVATIONS


STATION/POSITION TIME  SKY/WX   TEMP    WIND        PRES    VSBY  WAVE
                                AIR SEA DIR/SP/G                  HT/PER
                 (UTC)          (F)     (DEG/KT/KT) (MB)    (MI)  (FT/S)
NY HARB ENTRANCE 0600            45 45  VRB 21/ 25  1009.8
4S FIRE IS       0500               45                N/A           3/ 5
23SW MTP         0600            45 43  300/ 21/ 25 1005.7          5/ 7
HUDSON CANYON    0500            45 45  310/ 23/ 27 1008.0          9/ 7
EXECUTION ROCKS  0600            45 45  310/ 14/ 19   N/A
WESTERN LI SOUND 0600            45     290/ 16/ 21   N/A           1/ 2
CENTRAL LI SOUND 0500            46 44  300/ 19/ 23   N/A           3/ 4
EASTERN LI SOUND NOT AVBL
ROBBINS REEF     0600            44     310/ 20/ 23   N/A
$$


>>>>>>>>>>>>>>>>>>>>>>>>>>>> KEY <<<<<<<<<<<<<<<<<<<<<<<<<<<
>                                                          <
>     SKY/WX - SKY CONDITION/PRESENT WEATHER               <
>     TMP    - TEMPERATURE IN FAHRENHEIT                   <
>     DP     - DEWPOINT IN FAHRENHEIT                      <
>     RH     - RELATIVE HUMIDITY IN PERCENT                <
>     WIND   - DIRECTION AND SPEED IN MPH                  <
>     PRES   - MEAN SEA LEVEL PRESSURE IN INCHES OF HG     <
>     WCI    - WIND CHILL INDEX                            <
>     VSB    - VISIBILITY IN MILES                         <
>     HX     - HEAT INDEX                                  <
>     TC     - TEMPERATURE IN CELSIUS                      <
>     VRB    - VARIABLE WIND DIRECTION                     <
>                                                          <
>>>>>>>>>>>>>>>>>>>>>>>>>>>> KEY <<<<<<<<<<<<<<<<<<<<<<<<<<<





USA.gov is the U.S. government's official web portal to all federal, state and local government web resources and services.